Regional Weather Roundup
Issued by NWS

Home | Current Version | Previous Version | Graphics & Text | Print | Product List | Glossary On
Versions: 1 2 3 4 5 6 7 8 9 10 11 12 13 14 15 16 17 18 19 20 21 22 23 24 25 26 27 28 29 30 31 32 33 34 35 36 37 38 39 40 41 42 43 44 45 46 47 48 49 50
000
ASUS43 KLMK 181410
RWRKY
KENTUCKY REGIONAL WEATHER ROUNDUP
NATIONAL WEATHER SERVICE LOUISVILLE KY
900 AM EST THU DEC 18 2014

NOTE "FAIR" INDICATES FEW OR NO CLOUDS BELOW 12,000 FEET
WITH NO SIGNIFICANT WEATHER AND/OR OBSTRUCTIONS TO VISIBILITY.

KYZ001>023-026-027-061>063-070>075-181500-
WESTERN AND SOUTH CENTRAL KENTUCKY

CITY           SKY/WX    TMP DP  RH WIND       PRES   REMARKS
PADUCAH        CLOUDY    33  30  88 NE5       30.28R WCI  29
HENDERSON      CLOUDY    30  25  80 E3        30.29R
OWENSBORO      CLOUDY    31  26  81 CALM      30.30R
HOPKINSVILLE   CLOUDY    32  29  90 N6        30.25R WCI  26
BOWLING GREEN  CLOUDY    32  26  78 NE3       30.28R
GLASGOW        CLOUDY    30  26  86 NE3       30.25S FOG
$$

KYZ024-025-028>034-038-045-046-053-181500-
NORTH CENTRAL KENTUCKY

CITY           SKY/WX    TMP DP  RH WIND       PRES   REMARKS
LOUISVILLE/SDF CLOUDY    30  23  75 N5        30.31R WCI  25
LOUISVILLE/LOU CLOUDY    30  22  72 N5        30.30R WCI  25
FORT KNOX      CLOUDY    29  23  79 NE3       30.26S
$$

KYZ035>037-039>044-047>052-055>060-089>105-181500-
NORTHEAST KENTUCKY

CITY           SKY/WX    TMP DP  RH WIND       PRES   REMARKS
LEXINGTON      CLOUDY    29  22  75 E5        30.25F WCI  24
COVINGTON      CLOUDY    27  18  69 SW3       30.29R
FRANKFORT      CLOUDY    28  21  75 E5        30.26S WCI  23
$$

KYZ054-064>069-076>088-106>120-181500-
SOUTHEAST KENTUCKY

CITY           SKY/WX    TMP DP  RH WIND       PRES   REMARKS
JACKSON        CLOUDY    28  22  78 CALM      30.23S
LONDON         CLOUDY    29  24  82 NE5       30.23F WCI  24
SOMERSET       CLOUDY    28  28 100 E3        30.26S
MIDDLESBORO    CLOUDY    32  29  91 CALM      30.24S
MONTICELLO     MOSUNNY   31  28  88 NE5       30.26S FOG     WCI  26
$$



USA.gov is the U.S. government's official web portal to all federal, state and local government web resources and services.